Regional Weather Roundup
Issued by NWS Sioux Falls, SD

Home | Current Version | Previous Version | Text Only | Print | Product List | Glossary Off
Versions: 1 2 3 4 5 6 7 8 9 10 11 12 13 14 15 16 17 18 19 20 21 22 23 24 25 26 27 28 29 30 31 32 33 34 35 36 37 38 39 40 41 42 43 44 45 46 47 48 49 50

000
ASUS43 KFSD 090710
RWRFSD

WEATHER ROUNDUP FOR SE SOUTH DAKOTA/SW MINNESOTA/NW IOWA
NATIONAL WEATHER SERVICE SIOUX FALLS SD
100 AM CST FRI DEC 09 2016

NOTE: "FAIR" INDICATES FEW OR NO CLOUDS BELOW 12,000 FEET WITH NO
SIGNIFICANT WEATHER AND OR OBSTRUCTIONS TO VISIBILITY.


SDZ038>040-050-052>070-090800-
SOUTHEAST SOUTH DAKOTA

CITY           SKY/WX    TMP DP  RH WIND       PRES   REMARKS
BROOKINGS      CLEAR     -1  -5  82 NW6       30.56S WCI -13
CHAMBERLAIN    FLURRIES   6   2  86 N5        30.60F WCI  -3
HURON          CLEAR     -3  -6  87 NW6       30.63S WCI -15
MADISON        FAIR       0  -2  92 NW8       30.56F WCI -15
MITCHELL       CLEAR      0  -4  83 W6        30.64F WCI -12
SIOUX FALLS    CLEAR      3  -1  83 W6        30.59S WCI  -8
WINNER         FAIR      -2  -6  83 CALM      30.55F
YANKTON        CLEAR      3  -2  78 W6        30.63S WCI  -8
$$

MNZ071-072-080-081-089-090-097-098-090800-
SOUTHWEST MINNESOTA

CITY           SKY/WX    TMP DP  RH WIND       PRES   REMARKS
FAIRMONT       FLURRIES  11   6  81 NW14      30.56S WCI  -5
JACKSON        CLEAR      7   3  85 NW8       30.55S WCI  -6
LUVERNE        CLEAR      5   0  78 NW6       30.59S WCI  -6
MARSHALL       CLEAR      4  -1  80 NW9       30.59S WCI -10
MONTEVIDEO     CLEAR      3   0  85 N9        30.61S WCI -11
PIPESTONE      CLEAR      3   0  85 NW5       30.54S WCI  -6
REDWOOD FALLS  CLEAR      6   1  80 NW10      30.58S WCI  -9
TRACY          CLEAR      7   3  84 NW9       30.57S WCI  -7
WINDOM         FLURRIES   7   3  85 CALM      30.55S
WORTHINGTON    CLEAR      5   2  87 W7        30.56R WCI  -7
$$

IAZ001>003-012>014-020>022-031-032-NEZ013-014-SDZ071-090800-
NORTHWEST IOWA

CITY           SKY/WX    TMP DP  RH WIND       PRES   REMARKS
CHEROKEE       CLEAR      7   4  89 CALM      30.61S
DENISON        CLEAR     10   5  79 CALM      30.60R
ESTHERVILLE    CLEAR      7   5  91 NW7       30.55S WCI  -5
LE MARS        CLEAR      7   3  85 NW8       30.64S WCI  -6
ORANGE CITY    CLEAR      7   3  85 NW10      30.59S WCI  -8
SHELDON        CLEAR      5   3  92 W7        30.58R WCI  -7
SIOUX CITY     CLEAR     11   4  73 NW13      30.64S WCI  -4
SPENCER        CLEAR      7   3  84 W16       30.58R WCI -11
STORM LAKE     CLEAR      9   5  85 NW10      30.58R WCI  -6
$$

ABBREVIATIONS USED IN REMARKS
   TC - TEMPERATURE IN CELSIUS
  WCI - WIND CHILL INDEX
   HX - HEAT INDEX
  VSB - VISIBILITY





USA.gov is the U.S. government's official web portal to all federal, state and local government web resources and services.